Theta_e
343 344 343 344 345 346 348 349 348 347 347 349 350 350 351 352 354 355 357 357 356 356 357 357 356 356 356 357 356 356 356 355 354 353 354 356 355 355 355 355 355 355 355 355 355 354 354 353 353 352 350 348 347 347 347 346 344 341 339 338 340 339 336
343 345 344 344 345 345 347 348 347 346 346 349 350 350 351 351 353 355 356 357 357 357 358 358 358 357 356 357 357 357 356 356 355 354 354 355 356 355 355 355 355 355 355 354 354 354 353 353 352 351 350 348 346 345 345 344 343 341 339 339 340 338 336
343 344 344 345 347 347 347 347 347 346 346 348 350 350 351 351 352 354 356 358 358 358 358 358 359 358 357 357 357 357 357 357 356 356 355 356 356 356 356 355 355 355 355 354 354 354 353 353 352 351 351 349 346 345 343 342 342 341 339 339 339 338 337
344 344 345 345 348 347 347 348 347 346 346 348 350 350 350 351 352 353 355 357 358 358 358 358 359 359 358 358 357 357 357 357 357 357 356 356 356 356 356 356 356 356 355 354 354 353 352 352 352 351 351 350 348 346 343 342 343 342 339 339 339 338 337
346 344 345 345 347 347 348 348 346 346 346 347 350 350 351 351 352 353 354 356 358 358 358 358 358 359 359 358 358 357 357 357 358 357 357 357 357 357 357 357 357 356 354 353 353 352 352 352 351 351 351 350 349 347 345 344 345 343 340 339 339 338 337
346 346 345 345 345 346 347 348 347 346 346 347 349 350 351 351 352 353 354 356 358 358 358 358 358 359 359 360 359 358 358 357 358 358 358 358 358 358 358 357 357 355 354 353 352 352 352 351 351 351 351 350 349 348 346 347 346 343 340 339 338 338 338
345 346 346 344 345 346 346 347 347 346 347 347 349 351 352 352 352 353 354 356 357 358 358 359 359 359 360 360 360 360 359 359 358 359 359 359 359 358 358 357 356 355 354 353 353 352 352 352 351 351 351 351 350 348 346 347 346 343 341 340 338 338 339
345 346 346 345 345 345 346 348 347 347 348 348 349 351 352 353 353 353 355 356 357 359 359 359 360 360 360 360 360 360 360 360 359 360 359 360 359 359 358 357 356 355 354 354 353 353 352 352 352 351 352 351 350 349 346 346 345 343 341 341 339 338 338
345 345 345 346 345 344 346 348 348 348 348 349 349 351 353 353 354 354 355 356 357 359 359 360 360 360 360 361 360 361 361 361 361 360 360 360 360 360 358 357 356 355 355 354 353 353 353 353 352 352 352 351 351 349 346 345 344 342 342 342 340 338 338
345 346 346 346 345 346 346 347 350 351 351 351 351 352 354 354 354 355 356 357 358 359 360 361 361 361 361 361 361 361 362 362 362 361 361 361 360 360 359 357 356 355 355 355 354 354 354 353 352 352 351 351 350 349 347 345 344 343 343 342 341 339 338
346 346 347 347 346 347 347 348 352 354 354 353 351 352 354 354 355 356 356 358 359 360 361 361 362 362 362 362 362 362 362 362 362 361 361 361 361 360 360 358 357 356 355 355 355 355 354 354 353 352 351 351 350 349 348 346 345 344 343 343 342 340 339
347 348 347 348 347 348 349 350 352 355 355 353 351 353 354 354 355 356 356 358 359 360 362 361 362 363 362 362 362 362 363 362 362 362 361 361 360 360 360 359 358 357 356 356 355 356 355 354 354 353 351 351 350 349 348 346 346 345 344 343 343 341 339
347 348 347 347 347 347 350 352 352 353 355 353 351 353 355 354 356 356 357 358 359 361 362 362 363 363 363 363 363 362 363 363 362 362 362 361 361 360 360 359 358 357 357 356 356 356 355 355 354 353 352 351 350 349 348 347 346 345 344 344 343 342 340
347 346 346 347 347 348 350 352 353 353 354 353 351 352 355 355 355 356 357 358 359 361 362 362 364 363 363 363 363 363 363 362 363 362 361 361 361 360 360 359 359 358 357 357 356 355 355 355 354 353 352 350 349 349 348 347 346 345 345 344 344 342 341
352 347 346 347 347 348 349 351 353 353 353 353 351 351 354 355 355 356 356 357 359 360 362 363 363 363 364 364 363 363 363 363 362 362 362 362 361 360 360 359 359 359 358 357 357 356 355 355 355 354 352 351 350 349 348 347 346 346 345 344 344 343 342
355 351 347 347 348 348 348 351 353 353 353 355 354 352 353 354 356 355 356 357 358 359 361 363 363 364 364 364 364 363 363 363 363 362 362 362 361 361 360 359 359 359 358 357 357 356 356 355 355 354 353 352 351 349 348 347 347 346 345 345 344 343 342
352 350 346 346 347 346 347 349 352 353 354 356 354 352 351 354 356 356 356 357 357 358 360 361 363 364 364 364 364 363 363 363 363 363 362 362 361 361 360 359 359 358 358 358 357 356 356 356 355 355 354 353 351 350 349 347 347 346 345 345 345 344 343
351 348 347 347 347 348 349 350 352 353 354 355 352 351 352 354 355 355 356 356 356 358 359 360 362 363 363 364 364 364 363 363 363 362 362 362 361 361 361 360 359 359 358 358 357 357 356 356 355 355 354 354 352 351 350 349 348 347 346 345 345 344 343
356 349 348 348 346 348 349 349 352 353 353 352 351 351 352 354 355 356 356 356 356 357 358 360 361 362 363 364 363 363 363 363 363 362 362 362 361 361 361 360 359 359 358 357 357 357 357 356 355 355 355 354 353 352 351 350 349 348 347 346 345 344 343
360 355 351 349 347 348 349 349 351 351 351 350 350 351 353 354 355 357 356 356 356 356 357 359 360 361 362 363 363 364 363 362 363 362 362 362 361 361 361 360 360 359 358 357 357 357 357 357 356 355 355 354 354 353 352 351 350 349 347 346 345 345 344
356 356 354 352 349 349 349 351 352 351 349 349 349 350 351 353 355 356 356 357 356 356 357 358 360 361 362 363 363 363 363 363 363 362 362 362 361 361 361 360 360 359 358 358 357 357 357 356 356 355 355 354 354 353 352 352 351 349 348 346 346 345 344
350 350 350 355 358 356 355 352 350 350 350 348 349 351 350 351 354 356 357 358 357 356 357 358 359 361 361 362 363 363 363 363 362 362 362 361 361 361 361 361 360 360 359 358 358 357 358 357 357 356 355 354 354 353 353 352 350 349 348 347 347 345 344
345 346 353 360 359 354 351 349 348 348 348 348 350 351 351 351 352 354 356 358 357 357 357 357 358 360 361 362 362 363 364 363 363 362 361 361 361 361 361 361 361 361 360 359 358 358 358 358 357 357 356 355 354 354 353 351 350 349 349 348 347 345 344
341 338 351 364 364 355 347 347 350 351 351 352 352 351 353 352 351 353 355 356 358 358 357 358 357 358 360 361 361 362 364 363 363 363 362 361 361 361 361 362 361 361 361 359 359 358 358 358 358 357 357 355 354 354 352 351 350 349 348 348 347 345 344
352 342 343 349 355 356 350 347 350 353 355 356 355 353 355 354 353 353 354 356 357 357 357 357 357 357 358 359 360 361 363 363 363 363 362 361 361 360 361 361 361 362 361 360 360 359 359 359 358 357 357 355 355 354 352 351 350 349 349 348 346 345 345
369 369 367 355 346 348 349 349 352 354 356 357 356 356 356 356 355 355 354 356 356 357 357 357 357 357 357 357 359 359 361 363 363 363 363 362 362 361 361 361 361 362 361 360 360 359 359 359 358 357 356 355 354 353 352 351 350 349 348 348 346 346 345
368 375 383 375 356 345 345 350 353 353 353 355 357 358 359 359 358 355 355 356 356 356 357 357 357 357 356 356 357 357 359 362 363 363 363 363 362 362 361 361 361 361 362 361 360 359 358 358 357 356 354 354 353 352 352 351 350 349 348 348 347 346 345
365 365 366 368 363 344 339 350 356 353 352 354 355 358 360 360 360 357 356 356 356 356 357 356 356 356 355 355 356 355 357 361 362 363 363 363 363 363 362 362 362 361 362 360 359 358 356 355 355 354 352 352 352 351 351 351 350 350 349 348 347 346 345
363 364 360 365 368 353 347 366 371 356 354 357 356 358 360 359 359 359 357 357 357 356 356 356 356 356 354 354 354 355 357 359 361 363 363 363 364 363 363 363 362 361 361 359 358 357 354 353 353 351 350 350 349 350 350 349 348 348 346 345 344 343 343
362 362 357 360 364 354 355 376 375 355 354 361 359 359 361 360 360 359 358 359 358 358 357 356 355 355 354 353 354 355 357 359 362 363 364 364 365 364 363 363 361 360 359 358 356 355 353 351 351 349 347 347 346 346 347 346 346 345 343 343 342 341 340
355 354 351 352 355 353 356 367 363 352 353 357 356 358 360 360 361 360 358 360 360 359 360 359 358 358 356 355 356 357 359 362 363 364 365 365 365 363 362 361 359 357 356 355 355 353 351 349 348 348 346 345 344 345 345 344 344 343 342 342 341 340 338
349 349 348 347 348 350 353 355 352 349 349 348 348 352 354 356 358 358 356 359 361 362 361 360 362 363 361 360 361 362 364 365 365 365 365 364 363 362 361 359 358 355 353 352 351 350 348 346 345 345 344 343 343 343 343 343 343 342 341 341 340 339 338
349 348 347 345 345 347 348 348 347 346 346 345 345 348 350 351 354 355 357 359 361 362 363 365 366 367 366 365 366 365 366 365 363 362 362 361 360 359 357 357 356 353 350 348 347 346 345 344 343 342 341 341 341 340 340 341 341 340 340 339 339 338 336
350 347 344 343 344 344 344 344 343 343 344 344 345 346 347 348 350 353 358 361 362 363 366 368 368 368 367 367 366 365 364 363 361 359 358 356 356 355 354 353 351 348 345 346 346 345 343 342 342 341 341 341 340 339 339 338 338 339 338 338 337 338 335
351 349 345 343 344 344 343 342 342 342 342 342 342 343 345 345 346 350 354 356 359 362 363 364 365 366 365 365 364 363 362 360 357 355 353 351 351 350 348 348 346 343 342 344 346 347 345 343 343 342 342 343 342 340 339 338 338 338 339 338 337 337 335
349 348 346 343 343 344 343 342 342 341 340 339 341 343 344 344 343 347 350 353 355 355 354 354 355 354 353 354 354 353 354 353 350 347 346 345 344 342 341 341 342 343 344 345 346 347 347 346 346 344 343 343 342 341 341 340 340 340 340 339 338 337 336
346 348 347 344 343 343 343 343 342 341 340 339 339 341 343 343 342 343 347 350 351 349 346 345 346 345 344 344 344 343 344 343 342 341 340 339 337 336 335 336 338 342 345 345 345 346 347 346 345 344 343 341 341 341 341 341 341 341 341 341 340 338 337
344 346 346 346 346 345 344 344 343 342 341 340 339 337 338 340 342 343 344 345 346 345 343 341 341 340 340 339 339 339 339 338 337 337 337 336 335 335 335 334 333 335 339 343 344 344 344 343 343 342 342 341 341 342 342 342 342 341 341 341 340 338 337
Wind_Speed
18 19 18 17 17 18 18 19 20 22 27 31 34 38 39 39 41 40 40 43 44 43 43 44 43 43 43 42 41 41 40 40 39 39 38 37 36 35 36 36 35 35 34 34 35 36 34 32 32 31 30 29 30 29 28 26 25 25 23 23 24 24 21
17 17 18 17 17 18 19 20 20 23 28 31 34 37 38 39 40 40 40 42 44 44 44 44 44 44 43 42 41 40 40 40 39 39 38 37 36 36 36 37 36 36 35 36 36 37 36 34 34 33 31 31 30 30 30 28 27 27 25 25 25 25 23
16 16 17 17 17 18 19 19 20 24 29 31 33 35 38 41 43 43 42 42 43 42 43 43 43 43 43 42 41 40 40 40 39 39 38 38 37 36 36 36 37 37 36 36 37 37 37 36 36 34 33 32 31 30 30 29 29 28 27 26 26 25 24
17 17 18 19 19 19 19 19 19 24 30 33 36 39 42 44 44 44 43 43 43 42 42 43 43 42 42 42 41 41 41 41 40 40 39 39 38 37 37 36 37 37 37 37 38 38 37 36 36 36 34 33 32 31 31 31 31 31 29 28 27 26 25
18 18 17 17 18 17 17 18 19 23 29 34 38 41 42 43 42 41 42 42 44 45 46 46 45 43 42 42 42 41 42 42 42 41 40 39 37 37 37 38 38 38 38 39 39 38 38 37 37 37 36 35 33 33 33 32 32 33 32 30 28 27 27
18 17 16 16 17 17 18 19 21 26 31 33 37 39 39 39 40 40 41 42 43 44 45 45 44 43 42 42 42 41 41 43 42 41 39 38 37 37 38 39 39 39 39 39 39 39 38 38 38 38 38 37 35 34 35 35 34 34 34 31 30 29 28
18 17 17 17 17 17 18 19 21 27 32 34 35 36 36 37 39 41 41 41 43 43 42 42 43 44 43 43 42 41 42 43 42 41 39 38 37 38 38 39 40 40 40 40 40 40 39 38 39 39 39 39 37 36 37 37 36 36 35 33 32 31 30
19 18 18 18 18 18 18 18 18 22 28 29 30 31 34 37 38 39 40 41 42 42 42 43 44 44 44 43 43 43 43 43 42 41 39 38 38 38 38 39 40 41 40 40 41 40 39 39 40 40 40 40 39 39 39 38 38 38 36 35 35 34 33
19 19 20 19 19 18 17 16 16 19 23 26 27 30 34 36 37 39 41 41 41 41 43 44 44 44 44 43 43 44 44 43 42 41 39 39 39 39 40 40 40 41 41 41 41 40 40 40 40 41 42 41 41 40 41 40 39 39 38 37 36 36 36
18 19 19 19 18 16 16 16 14 15 17 20 24 29 33 35 36 38 39 39 40 41 43 42 42 43 43 42 42 43 43 43 42 40 40 40 40 40 41 40 40 40 41 41 41 40 41 40 40 41 42 42 42 42 42 42 41 40 39 38 37 37 38
17 18 18 18 19 17 16 14 13 14 15 16 21 27 31 34 35 36 36 38 39 40 40 41 41 41 42 42 41 41 43 43 42 41 41 41 41 41 41 41 40 41 41 41 41 41 41 41 41 42 43 44 44 44 43 43 42 41 40 40 39 38 39
15 16 18 19 20 18 15 13 14 15 15 15 21 26 29 32 34 34 35 37 38 37 38 39 40 40 41 41 40 41 42 42 42 42 43 43 42 42 42 41 40 41 41 41 41 40 41 42 43 43 44 45 44 44 45 44 43 43 42 41 40 39 39
13 14 16 18 17 16 14 14 15 17 15 16 21 27 30 32 34 35 35 36 36 36 37 38 39 40 40 41 40 41 42 43 43 43 44 44 43 42 41 41 41 41 42 42 41 40 41 42 43 44 44 44 44 44 45 44 43 43 43 42 41 40 39
11 13 15 15 14 15 15 15 16 17 16 17 21 26 29 32 34 35 35 36 37 37 38 39 39 40 40 40 41 41 43 44 44 43 44 44 43 42 41 41 41 41 41 41 41 41 42 42 43 43 42 43 44 44 43 43 43 43 42 41 40 40 38
9 10 10 10 12 14 15 16 16 17 17 18 19 22 26 28 31 33 34 35 37 38 40 41 40 40 40 40 41 43 43 43 42 42 42 42 42 42 42 42 42 41 40 40 41 42 42 41 41 40 40 42 42 42 41 42 43 43 43 41 40 39 38
13 12 11 11 12 13 15 16 17 17 17 17 16 18 22 25 29 32 34 36 38 39 41 41 41 40 40 41 42 43 42 42 41 41 41 41 42 43 43 42 42 41 41 40 41 41 40 39 39 39 41 41 41 40 40 41 42 43 43 43 41 39 38
13 15 16 16 16 16 16 16 16 16 17 17 17 20 24 27 30 33 34 35 37 39 40 41 41 40 41 42 42 41 41 41 41 40 41 42 42 43 43 43 42 41 41 40 40 40 39 38 39 40 42 41 40 40 40 41 43 43 43 43 41 39 38
10 13 15 17 17 15 14 14 14 16 17 16 18 22 26 27 28 30 32 35 38 39 40 40 40 40 41 41 40 40 41 41 41 40 41 41 42 43 43 42 41 40 40 39 39 38 38 39 40 42 42 40 39 40 41 42 44 43 43 42 41 40 38
9 11 12 14 15 15 15 14 13 15 16 17 19 25 29 31 30 31 35 38 39 39 39 39 40 40 40 40 40 40 41 42 41 41 41 42 43 42 41 41 41 40 39 39 38 38 38 39 40 41 41 40 40 41 42 43 43 43 42 41 41 40 39
9 9 10 11 12 14 14 14 14 15 17 21 26 31 34 35 34 36 38 38 36 36 37 38 39 39 39 39 40 41 41 41 41 41 41 42 42 41 40 41 40 39 39 38 38 38 38 39 40 40 39 40 41 41 42 43 44 43 41 40 39 39 40
10 9 10 12 12 13 13 13 14 15 17 24 30 32 32 33 35 36 35 34 34 35 37 38 38 38 38 38 39 40 40 41 41 42 41 41 40 40 40 40 39 39 38 37 37 39 39 40 40 39 39 41 41 40 42 44 43 40 39 39 38 39 40
9 9 9 11 12 12 12 12 13 14 18 25 28 28 29 32 35 34 32 33 35 36 37 37 36 36 37 38 39 41 41 42 42 41 41 41 40 40 40 39 39 39 38 36 37 38 38 38 39 39 40 40 39 41 42 40 37 36 36 37 37 38 38
6 7 7 7 9 11 14 17 20 21 24 25 26 27 30 34 36 33 30 31 33 34 35 34 34 35 37 38 41 42 43 44 43 41 41 40 40 40 40 40 39 38 37 36 36 36 37 38 39 40 40 39 39 41 39 33 31 32 33 34 36 36 37
1 4 7 7 8 9 13 19 22 23 24 23 23 28 32 33 33 31 29 30 32 33 32 32 33 35 37 40 43 44 44 45 44 42 41 41 41 41 40 38 38 37 37 37 36 36 38 38 38 37 38 38 39 38 34 29 28 29 30 32 34 35 36
6 3 3 7 9 10 13 19 23 23 22 20 23 30 34 32 32 30 28 30 33 32 30 32 36 38 40 43 45 45 45 45 44 43 41 41 41 40 39 39 38 37 37 38 38 37 37 36 34 34 34 35 35 33 30 28 27 26 27 29 30 32 34
3 2 1 4 10 14 16 19 19 17 17 20 27 33 33 31 30 29 29 31 32 31 32 36 41 43 45 46 45 44 43 43 43 42 42 42 41 40 39 38 37 36 37 37 36 35 33 33 32 31 31 31 30 29 29 28 25 23 24 26 27 29 33
1 1 1 3 7 13 15 15 15 15 18 25 30 30 28 27 25 24 26 27 25 28 37 43 46 46 46 45 42 42 42 42 43 43 42 41 40 38 37 37 37 37 37 35 33 31 30 29 29 28 27 27 27 26 26 25 24 22 22 23 24 27 31
6 5 5 3 2 8 10 11 13 16 19 22 21 20 21 23 22 23 25 23 23 32 39 41 43 44 44 41 40 40 42 42 42 42 40 38 37 36 35 36 36 37 36 33 30 29 27 26 26 25 23 22 22 23 22 21 21 20 21 22 23 26 29
8 7 7 6 4 2 7 7 7 11 16 19 18 17 19 19 18 19 20 21 30 41 43 41 42 41 38 36 36 37 40 41 41 40 37 37 38 37 35 35 34 34 33 32 30 28 26 25 25 24 23 21 21 21 21 20 20 19 18 19 21 22 25
9 9 8 8 9 7 1 5 6 7 9 9 11 14 17 19 18 15 13 18 27 32 32 34 38 36 32 31 32 33 35 36 38 39 38 38 39 36 34 34 33 32 32 32 31 29 27 26 26 25 24 23 22 22 21 21 20 17 15 16 17 18 20
9 10 9 9 13 16 12 6 6 7 9 11 10 3 4 9 11 8 4 8 12 10 10 13 16 21 26 29 30 31 33 34 36 37 38 39 39 37 35 34 33 32 32 32 32 31 28 26 26 26 25 24 23 23 22 21 19 18 17 17 17 17 18
10 10 11 11 14 17 16 15 15 14 14 18 20 17 12 8 7 6 3 1 3 3 4 5 9 16 22 25 29 31 32 32 32 33 35 37 38 38 37 36 35 34 33 32 31 30 28 27 26 26 25 25 24 23 21 20 20 20 19 18 18 19 20
9 10 10 12 14 16 16 15 14 14 14 17 21 22 19 17 15 12 8 3 4 7 10 13 17 18 19 21 26 30 32 33 33 33 34 35 36 35 34 36 37 35 32 31 30 29 28 27 27 26 26 24 23 22 22 21 21 21 21 20 20 21 22
8 8 10 13 16 17 16 13 12 13 13 13 17 21 21 20 19 15 12 8 7 12 16 18 21 22 21 21 22 25 29 33 35 36 35 34 34 34 32 32 33 31 29 30 32 32 31 29 28 27 26 25 24 23 23 22 24 24 24 23 23 22 23
8 8 9 12 15 17 16 13 12 13 13 13 16 19 19 19 18 16 15 14 12 15 18 19 21 22 21 22 22 24 27 31 33 35 37 36 35 34 31 31 32 30 28 29 33 34 33 30 29 28 27 27 27 26 24 24 26 25 22 21 22 22 23
9 8 9 12 13 14 14 13 12 12 10 10 13 18 18 17 16 15 15 16 17 18 16 15 17 18 16 15 14 15 20 26 29 32 37 40 39 36 32 31 33 34 32 29 29 31 30 28 27 26 25 25 26 25 24 23 22 20 18 18 20 21 21
10 9 9 12 11 10 10 9 8 8 5 3 5 11 14 17 19 18 17 18 21 22 18 15 14 16 17 17 17 13 12 16 20 24 28 31 34 36 35 32 29 29 29 28 27 27 26 24 22 20 20 22 24 23 21 18 16 16 18 18 18 19 20
13 13 12 12 11 9 8 8 5 4 2 1 2 3 4 9 13 14 16 20 23 25 24 20 17 15 14 16 20 21 18 16 17 20 24 26 27 31 33 32 29 25 23 22 23 23 21 19 17 17 18 20 21 21 19 16 13 14 17 18 17 18 19
Wind_Direction
187 191 190 189 190 190 191 191 191 192 192 192 193 193 192 192 192 191 191 192 192 193 194 194 195 196 198 201 203 205 206 207 206 206 207 208 207 204 202 202 202 205 208 208 207 207 206 204 203 205 206 205 206 207 207 207 207 208 209 210 211 212 213
188 193 192 190 190 191 192 192 192 193 193 193 193 192 192 192 192 192 192 192 193 193 193 194 195 196 198 200 203 205 206 207 207 207 208 209 210 208 207 207 207 209 211 212 210 208 206 205 204 205 206 206 206 207 209 209 208 209 211 210 209 210 212
190 191 190 191 192 192 192 191 193 194 194 193 191 191 193 194 193 192 192 192 192 193 193 194 196 197 198 200 201 204 206 208 208 208 208 210 210 210 210 211 211 211 212 212 210 207 205 205 205 206 207 207 206 207 208 207 206 209 210 207 207 210 211
194 191 188 191 192 192 192 190 192 195 195 193 192 192 194 195 194 193 192 192 191 192 193 195 196 197 198 199 200 203 206 208 209 209 210 210 211 211 210 210 210 210 210 208 207 205 205 205 205 206 207 208 207 207 206 206 206 210 212 210 211 212 213
198 195 189 190 192 193 192 192 193 195 195 194 193 194 195 194 192 192 193 193 192 193 194 195 196 196 198 199 200 203 206 208 210 210 210 210 211 211 210 209 208 207 207 206 205 205 205 205 205 205 207 208 209 208 207 208 210 211 213 214 215 214 213
198 196 193 191 192 193 192 194 196 195 195 194 193 194 193 191 190 191 193 193 194 195 195 195 195 195 196 198 199 201 205 208 210 210 211 210 210 210 210 209 208 207 206 205 204 205 206 206 206 206 206 207 209 210 210 212 213 212 212 215 216 214 212
196 195 195 194 191 192 194 195 196 195 195 193 192 191 190 189 190 191 192 193 194 194 194 194 194 194 195 197 198 200 203 206 209 210 210 210 210 211 210 210 209 208 207 206 206 206 207 208 208 207 207 207 209 211 211 213 213 212 212 214 215 214 212
197 194 195 197 192 192 195 195 194 194 194 191 188 187 187 189 191 191 192 194 194 193 193 194 194 194 195 196 197 199 202 205 207 208 209 209 211 212 212 211 210 209 207 207 207 208 208 209 208 208 208 208 210 211 212 212 212 211 212 214 215 215 214
198 196 197 198 194 194 194 193 192 190 188 187 185 185 187 189 191 192 194 194 193 194 195 194 194 194 195 195 197 199 201 203 205 206 207 208 210 212 213 212 211 209 208 208 208 209 210 210 209 208 208 209 210 211 211 212 212 213 214 215 216 216 216
197 197 199 198 195 197 196 191 188 185 185 185 184 184 187 189 192 194 194 193 193 195 195 193 193 194 194 195 197 198 200 202 203 203 205 207 210 211 212 213 211 209 209 209 209 210 210 210 210 209 209 210 211 211 211 211 212 214 216 217 218 218 218
195 195 196 197 196 197 195 186 180 183 185 185 184 185 187 190 192 194 194 193 195 195 194 193 193 193 194 195 196 197 199 201 201 201 204 206 209 211 212 212 211 210 210 209 210 210 210 210 210 210 210 211 211 211 212 213 213 214 216 218 220 221 221
195 196 194 196 197 195 189 181 180 185 187 184 184 185 187 190 192 194 194 194 195 194 192 192 193 193 194 195 195 197 199 201 201 201 203 206 208 210 211 211 211 211 211 210 210 210 210 210 210 212 212 213 213 212 213 214 215 215 217 218 220 222 222
198 197 197 196 195 192 184 178 183 186 186 185 185 186 187 189 192 193 193 193 193 193 192 193 193 193 193 194 195 197 200 201 202 202 203 205 208 209 210 211 212 212 211 211 210 210 210 210 211 213 214 214 214 214 215 215 216 217 218 218 220 221 222
205 205 205 197 191 189 183 182 187 186 184 185 187 188 188 190 192 193 193 192 191 191 192 192 193 193 193 194 196 198 200 202 203 203 203 205 207 208 210 211 212 213 212 211 211 211 211 212 212 213 214 215 216 216 216 216 216 217 218 218 219 220 221
190 206 211 204 197 193 187 188 190 187 185 185 186 187 187 190 192 192 192 192 191 192 192 192 193 193 193 195 197 199 201 202 203 203 204 204 206 208 210 211 213 213 213 212 211 212 213 213 213 213 215 216 217 217 217 217 218 218 217 217 217 219 221
173 183 194 201 205 201 195 194 191 186 184 183 184 185 185 189 192 192 192 192 192 193 193 192 193 194 194 196 200 200 200 201 203 203 204 203 205 207 209 211 212 213 213 213 212 213 213 214 214 215 217 218 217 217 217 218 219 219 219 218 217 219 220
177 178 183 190 200 204 201 197 189 184 183 182 184 186 188 191 192 193 194 193 193 194 192 192 193 194 196 199 201 199 199 201 202 203 203 204 205 207 208 210 211 212 213 213 213 213 213 213 214 216 218 218 218 218 218 219 221 221 220 220 219 220 221
192 188 186 188 194 198 199 196 188 185 184 184 187 189 190 192 192 193 195 194 195 194 191 192 194 196 198 200 200 198 199 201 202 202 203 204 205 207 208 209 211 212 212 212 212 212 212 212 215 217 219 219 219 219 220 222 223 222 221 221 220 221 222
199 196 192 192 192 188 188 189 188 187 186 187 190 191 192 192 191 194 198 197 196 193 191 192 195 197 199 200 198 198 199 200 201 202 203 204 205 207 207 208 210 211 211 211 212 211 211 213 215 217 218 218 219 221 222 224 225 224 222 221 221 221 222
195 194 188 191 194 191 187 185 185 189 190 191 193 195 195 193 194 198 200 198 196 192 191 194 196 198 200 199 199 200 200 200 201 203 204 205 205 205 206 208 210 210 210 210 210 211 212 213 215 216 217 218 220 221 223 226 226 224 222 221 221 221 223
189 190 186 185 192 196 192 188 187 189 193 196 197 197 195 194 197 199 199 196 194 194 195 195 196 198 199 199 200 201 200 200 201 202 203 204 204 204 206 208 209 210 210 209 209 211 213 214 215 216 217 219 219 221 224 227 226 224 221 220 221 222 223
190 192 196 186 183 188 186 188 194 196 200 201 199 196 195 196 199 199 196 195 194 195 197 197 197 198 198 199 200 201 200 200 201 202 202 202 202 203 205 206 207 208 208 208 210 212 213 215 216 217 218 219 218 221 225 227 225 222 220 220 221 222 221
184 189 206 194 185 189 188 191 197 202 206 205 199 196 197 199 200 197 194 194 195 197 199 199 200 199 198 200 201 202 201 201 200 200 200 200 200 202 203 204 205 206 206 206 208 210 212 214 216 218 218 218 218 221 223 224 223 221 219 219 220 219 219
266 196 207 209 201 199 199 199 200 204 206 201 199 201 202 201 199 196 194 195 195 197 198 200 203 202 201 202 203 202 202 201 200 200 198 198 200 201 202 202 203 204 204 205 207 209 212 214 215 217 218 217 219 220 220 220 221 219 218 218 218 217 217
337 320 208 204 202 200 206 205 203 204 201 194 199 206 206 201 197 194 196 198 196 196 198 201 205 205 204 206 205 204 202 201 200 199 198 198 200 200 200 200 201 202 203 205 208 210 212 212 213 214 215 216 218 218 217 218 218 217 217 217 216 216 218
318 322 90 175 201 207 209 207 203 201 196 196 205 210 206 200 196 195 198 200 197 195 198 202 206 207 208 208 206 204 202 201 200 200 199 199 199 199 199 199 199 199 201 204 207 209 209 209 208 209 210 211 213 214 214 215 215 213 215 216 215 216 218
294 298 65 125 188 200 201 201 201 201 203 206 210 211 206 199 196 198 202 204 202 201 202 204 206 208 209 209 206 203 202 201 200 200 200 199 197 196 197 197 196 197 198 199 201 202 202 201 201 201 202 204 206 208 210 213 214 212 212 215 217 219 219
6 352 347 14 151 182 184 188 196 204 211 213 213 212 206 199 196 200 202 203 208 212 210 208 208 210 210 209 205 201 200 200 200 200 198 196 194 193 193 194 195 195 194 193 192 190 189 189 189 189 188 190 195 200 203 207 210 208 207 211 216 218 219
7 357 345 352 358 189 171 167 185 205 212 215 216 213 204 198 201 208 206 206 212 214 213 211 211 212 211 209 205 203 200 198 196 195 193 191 191 190 188 188 188 188 186 184 181 178 175 175 176 174 171 173 181 189 194 196 197 199 200 206 213 217 218
10 2 350 346 346 341 339 157 165 181 194 207 219 215 204 197 200 207 216 226 227 224 223 220 214 209 206 206 204 202 200 196 192 190 188 187 186 183 180 179 178 176 177 176 173 169 166 166 167 165 163 166 172 180 186 187 188 191 195 202 210 213 215
16 8 3 0 355 350 353 23 70 76 59 38 30 42 177 190 192 190 221 251 250 256 271 261 232 207 199 199 198 197 194 189 186 184 181 180 177 174 171 170 167 165 166 168 167 165 162 161 163 162 161 164 169 174 181 185 188 192 195 201 207 206 208
19 13 15 13 3 2 13 29 37 42 41 32 31 40 53 73 102 99 66 301 231 202 217 233 217 204 198 192 189 186 182 177 174 173 171 170 170 169 167 166 163 162 162 163 161 160 158 157 158 158 158 161 166 172 178 185 192 197 198 200 205 206 206
23 19 25 28 24 29 41 49 43 42 41 32 27 31 40 52 62 68 70 90 156 170 173 175 180 186 188 185 180 176 171 167 162 159 159 159 160 161 162 164 164 160 156 154 152 151 153 154 155 157 157 158 162 168 174 180 188 193 195 197 202 208 207
24 21 28 38 45 50 55 59 60 58 56 45 35 34 40 46 52 62 75 94 141 164 164 163 166 167 167 170 172 169 165 162 157 153 151 152 153 154 155 158 156 151 152 158 159 155 154 155 157 159 159 159 162 165 168 175 183 187 190 195 199 202 201
20 26 27 34 49 63 69 70 69 66 63 60 54 52 53 53 56 68 81 90 118 145 149 150 154 156 157 161 166 167 163 158 154 151 147 143 143 145 146 148 150 152 158 164 165 161 159 158 161 165 167 171 175 174 172 178 187 191 193 198 201 201 197
19 24 31 35 45 61 74 82 87 84 78 75 77 81 86 88 86 91 99 106 116 118 113 117 127 127 125 129 140 155 158 153 149 146 142 140 139 135 131 136 148 157 159 157 157 162 165 167 170 174 178 182 185 185 185 187 192 195 198 203 206 204 202
31 28 33 38 40 42 47 57 81 100 114 129 102 101 110 116 120 125 129 130 127 116 96 82 91 102 108 112 112 114 125 133 134 135 133 132 130 126 122 121 129 142 150 152 155 161 167 172 177 181 187 188 186 186 190 192 193 197 200 202 204 203 202
42 41 38 39 39 34 26 20 28 60 86 210 180 164 139 109 108 122 134 135 132 123 110 98 92 92 102 118 122 121 119 113 113 118 117 113 115 121 124 122 117 117 126 141 152 158 162 167 172 175 182 187 185 184 189 191 191 195 198 198 198 199 198